This demonstration page uses our WeatherBlox Daily Observations layout. Learn more.

Left ArrowRight Arrow

39.01783, -85.05884

Hourly Observations for September 28, 2017

Temp ( °F °C ) Dew Point ( °F °C ) Humidity (%) Winds ( mph kmh ) Pressure ( in mb ) Visibility ( mi km ) Precip ( " mm )
12:52 am 00:52 Clear 65 18.3 56 13.3 73 73 N 10 17 30.02 1017 10 16 0.00 0.00
1:52 am 01:52 Clear 62 16.7 54 12.2 75 75 N 12 19 30.03 1017 10 16 0.00 0.00
2:52 am 02:52 Mostly Clear 60 15.6 54 12.2 80 80 N 10 17 30.04 1017 10 16 0.00 0.00
3:52 am 03:52 Clear 59 15 53 11.7 81 81 N 10 17 30.04 1017 10 16 0.00 0.00
4:52 am 04:52 Clear 57 13.9 53 11.7 87 87 N 12 19 30.05 1018 10 16 0.00 0.00
5:52 am 05:52 Mostly Clear 56 13.3 53 11.7 90 90 N 10 17 30.06 1018 10 16 0.00 0.00
6:52 am 06:52 Mostly Clear 56 13.3 52 11.1 87 87 N 7 11 30.07 1018 10 16 0.00 0.00
7:52 am 07:52 Mostly Sunny 55 12.8 52 11.1 90 90 N 8 13 30.09 1019 10 16 0.00 0.00
8:52 am 08:52 Partly Cloudy 58 14.4 52 11.1 81 81 N 8 13 30.10 1019 10 16 0.00 0.00
9:52 am 09:52 Mostly Sunny 61 16.1 52 11.1 72 72 NE 13 20 30.11 1020 10 16 0.00 0.00
10:52 am 10:52 Partly Cloudy 65 18.3 54 12.2 68 68 N 9 15 30.11 1020 10 16 0.00 0.00
11:52 am 11:52 Mostly Cloudy 68 20 55 12.8 63 63 NE 8 13 30.11 1020 10 16 0.00 0.00
12:52 pm 12:52 Partly Cloudy 71 21.7 56 13.3 59 59 N 9 15 30.10 1019 10 16 0.00 0.00
1:52 pm 13:52 Mostly Cloudy 71 21.7 56 13.3 59 59 N 8 13 30.09 1019 10 16 0.00 0.00
2:52 pm 14:52 Mostly Cloudy 73 22.8 54 12.2 51 51 N 10 17 30.07 1018 10 16 0.00 0.00
3:52 pm 15:52 Partly Cloudy 74 23.3 52 11.1 46 46 N 10 17 30.06 1018 10 16 0.00 0.00
4:52 pm 16:52 Partly Cloudy 75 23.9 50 10 41 41 NNW 13 20 30.06 1018 10 16 0.00 0.00
5:52 pm 17:52 Partly Cloudy 73 22.8 50 10 44 44 N 12 19 30.06 1018 10 16 0.00 0.00
6:52 pm 18:52 Mostly Sunny 71 21.7 49 9.4 46 46 N 9 15 30.06 1018 10 16 0.00 0.00
7:52 pm 19:52 Mostly Clear 67 19.4 49 9.4 53 53 N 7 11 30.07 1018 10 16 0.00 0.00
8:52 pm 20:52 Clear 64 17.8 48 8.9 56 56 N 8 13 30.08 1019 10 16 0.00 0.00
9:52 pm 21:52 Clear 62 16.7 48 8.9 60 60 NNW 7 11 30.09 1019 10 16 0.00 0.00
10:52 pm 22:52 Clear 61 16.1 49 9.4 65 65 N 9 15 30.11 1020 10 16 0.00 0.00
11:52 pm 23:52 Mostly Clear 60 15.6 49 9.4 67 67 N 7 11 30.11 1020 10 16 0.00 0.00

Powered by AerisWeather